Delta Virtual Airport Information Service

Paris Charles de Gaulle Airport

ICAO: LFPG Country: France
Latitude: 49.0125 Longitude: 2.55575
Latest Arrival : DAL753191 (LEMD-LFPG) Latest Departure : DAL753191 (LFPG-EIDW)


WX CaptureLIVE
Data provided by noaa.gov | Fetched at 07:41:12

METAR : LFPG 301300Z 24006KT 210V270 6000 NSC 05/00 Q1026 NOSIG

TAF : LFPG 301100Z 3012/0118 23005KT 6000 SCT015 TX08/0103Z TN03/0108Z PROB30 TEMPO 3012/3016 BKN012 BECMG 3018/3020 BKN012 TEMPO 3020/0103 4000 -RA OVC007 PROB30 TEMPO 3023/0102 BKN005 BECMG 0102/0103 34010KT BECMG 0103/0106 CAVOK PROB40 TEMPO 0111/0117 34010G25KT 4000 -SHRA BKN020TCU


Runway Data for LFPG
Data provided by openaviationdata.com

Runway ID Mag Var Hdg Length Elevation Surface ILS Freq ILS Id ILS Slope
08L -2 87° 13944 ft 392 ft Macadam 108.7 GLE 3
08R -2 87° 8832 ft 392 ft Concrete 108.55 DSE 3
09L -2 87° 8840 ft 392 ft Tarmac 109.35 PNE 3
09R -2 87° 13780 ft 392 ft Macadam 110.1 CGE 3
26L -2 267° 8832 ft 392 ft Concrete 108.35 DSU 3
26R -2 267° 13944 ft 392 ft Macadam 109.1 GAU 3
27L -2 267° 13780 ft 392 ft Macadam 110.7 CGW 3
27R -2 267° 8840 ft 392 ft Tarmac 110.35 PNW 3

Paris Charles de Gaulle Airport, France
Use only for reference purposes



Not for navigational purposes.